CAPE
501 1081 1917 1885 703 925 54 55 156 280 243 208 229 186 52 35 14 1 22 69 76 81 207 362 1164 911 1049 1175 983 1056 1148 1333 1356 1206 1211 1229 1368 1267 1124 1272 1327 1398 1206 915 957 1133 951 1085 1272
388 1560 1702 1424 648 53 61 141 197 169 221 223 336 286 25 22 18 13 49 60 91 85 133 130 756 1090 1383 862 1001 1017 1224 1205 1330 1352 1264 1151 978 1009 482 451 688 718 655 773 700 928 1252 1392 1423
399 1394 1249 1578 110 26 18 33 1 11 47 227 335 200 128 15 30 44 33 47 62 75 213 301 733 913 786 1301 1087 1325 1267 1394 1345 1394 1077 481 1498 729 813 1358 1301 1103 1100 1257 1127 1079 1039 935 861
1508 1686 1572 177 14 50 32 21 7 190 78 243 176 155 97 61 28 24 66 57 54 84 362 424 836 1463 1581 1018 1246 1305 1441 453 367 354 777 1255 912 954 1448 1294 1219 1189 1146 1009 872 839 914 910 794
1472 1366 433 3 4 33 15 10 112 121 161 275 227 111 126 75 8 14 45 76 78 196 585 900 1158 1358 1333 1256 1336 1337 1241 521 1450 1223 1251 1080 1402 1151 1076 1205 1202 1111 973 923 811 753 632 520 505
784 863 439 16 6 22 38 195 276 132 350 258 180 131 111 39 13 3 39 95 90 78 486 697 848 1352 1378 1430 1372 1287 607 496 1530 1447 911 1116 1200 1079 1078 999 927 909 886 817 663 572 446 336 246
407 169 149 32 0 32 32 207 201 135 256 282 138 82 53 31 0 0 1 28 104 375 532 672 826 1157 1428 1429 1475 1115 828 538 769 860 617 1055 1107 1072 1051 970 1000 940 748 583 420 409 409 227 153
276 105 47 36 0 10 39 532 328 269 316 381 158 64 42 31 0 0 1 32 124 313 316 355 434 722 832 1051 1103 1504 1461 1361 1114 401 539 866 438 424 639 511 463 375 350 264 447 411 266 180 157
56 21 0 2 0 9 25 199 229 204 410 306 339 131 101 13 3 0 0 5 48 125 289 362 438 758 671 504 548 434 623 664 247 483 712 866 714 448 754 597 0 8 91 164 225 282 273 349 325
2 1 0 0 2 47 87 74 265 528 412 421 311 242 119 7 0 0 0 0 0 1 87 310 620 674 510 136 559 674 954 883 366 742 548 883 876 517 625 419 289 772 977 854 620 525 650 646 666
17 0 0 17 16 18 70 116 246 467 696 463 305 247 197 26 5 0 5 0 0 0 26 30 432 730 458 938 1122 819 738 1322 1019 1102 1066 1254 1127 860 1317 514 1169 1354 1658 1329 1438 6 0 580 1196
1 0 0 5 24 37 92 80 383 660 697 425 299 386 202 143 47 9 0 0 0 0 0 0 159 429 256 830 392 255 755 186 431 1133 1222 1501 1510 1326 1440 1036 1253 1499 991 1292 976 225 218 1260 1221
2 0 0 7 26 77 92 166 326 394 513 401 313 225 201 88 26 1 0 0 0 0 0 0 458 346 357 406 9 44 439 978 1247 1568 1794 2043 1397 590 1116 1117 1250 1315 801 1058 793 793 1338 854 1052
10 0 0 0 31 46 157 218 380 404 504 521 339 293 234 98 80 73 0 0 0 6 1 15 584 176 144 549 714 717 560 624 1072 1727 1671 1708 1842 1879 1780 1339 1530 1397 692 877 800 946 847 1269 828
43 7 18 37 61 103 121 104 352 498 520 515 466 351 254 194 177 95 41 9 3 0 12 45 308 21 143 546 579 338 469 369 534 712 1196 1385 1483 1685 1189 1550 1605 1648 1657 1624 1750 1509 1237 1052 913
11 28 37 25 78 77 72 166 389 526 552 637 604 513 355 328 185 148 92 15 93 62 82 240 27 1 196 374 276 723 545 405 443 326 267 547 897 1571 1495 1723 322 1378 1523 832 930 962 814 714 372
2 0 26 134 153 236 156 94 311 360 423 579 630 533 470 387 353 367 162 50 58 58 35 213 4 43 189 124 599 572 409 319 307 157 68 576 848 1693 1490 1437 1634 1453 1294 1286 1154 1394 1094 565 538
0 0 1 9 34 254 43 35 180 253 303 413 522 510 456 402 388 462 353 233 97 22 175 63 61 14 95 70 163 317 296 205 157 110 128 235 919 1559 1930 1300 1724 1469 985 734 767 1297 1044 718 382
0 0 6 75 1 82 39 48 100 88 63 133 292 400 391 374 559 494 369 309 220 94 108 177 166 125 277 108 239 316 164 94 31 89 103 183 699 1800 2009 2094 1639 1491 1115 1205 1324 1774 1310 1167 835
0 1 60 42 0 39 59 202 74 29 13 3 51 194 242 298 306 402 632 538 385 238 290 214 362 575 440 518 769 451 405 284 861 498 538 637 983 1784 2119 1759 2057 1811 1705 1267 782 939 1283 1164 779
22 35 3 0 0 0 24 134 203 63 13 0 0 0 11 52 343 448 402 470 508 453 451 229 370 633 740 674 697 889 415 353 350 238 239 352 797 1856 1943 2131 2285 2187 2320 1512 1277 1284 1178 914 1049
20 0 2 0 0 0 0 5 52 128 1 2 0 0 0 0 138 523 552 575 493 661 787 560 435 393 834 752 536 767 554 621 517 691 552 887 1632 1756 2095 2391 2404 2668 2364 2365 1787 1880 1645 1645 1584
0 0 0 0 0 0 0 18 0 48 18 0 0 0 0 0 13 177 366 575 600 587 850 1087 1500 1363 1192 1191 963 636 1237 710 665 374 219 662 1456 1822 1811 1686 2507 2706 2692 2637 2344 2174 2246 1866 1608
0 0 0 0 0 0 0 8 17 0 0 0 0 0 0 0 0 117 219 349 418 455 573 1047 1551 1678 1824 1977 1795 1355 1408 1146 679 624 987 910 1599 2028 1841 1346 468 1477 2653 2743 2563 2259 2235 2177 1927
0 2 0 0 0 0 2 16 23 0 0 0 0 0 0 0 0 70 199 296 350 326 421 762 1320 1527 1971 1803 2043 1885 1352 1531 1482 1043 1063 1564 1465 1323 1650 1028 356 1099 2370 2242 2359 2217 2105 1505 1379
0 2 4 0 0 0 33 29 16 0 0 0 0 0 0 0 0 27 244 266 366 347 419 573 1323 1389 1565 1782 1771 1983 1889 1474 1353 1043 1208 1346 1975 2366 2524 2027 2064 1912 2098 1943 1793 1567 1372 1258 1150
0 0 0 0 0 2 19 29 11 0 0 0 0 0 0 0 0 36 144 372 415 358 409 479 1392 1524 1630 1657 1782 1759 1839 1655 1473 1360 1811 2169 2357 2408 2697 2551 2168 1960 1738 1497 1377 1301 1104 1155 1251
0 0 0 0 0 5 15 38 7 0 0 0 0 2 2 0 0 3 137 381 550 539 567 630 1218 1534 1747 1868 2032 2090 2119 2196 1971 2030 2503 2536 2542 2579 2655 2250 1919 1545 1469 1276 1222 1162 1382 1047 1099
0 0 0 0 0 0 6 9 0 0 0 0 0 0 70 20 11 47 227 509 536 698 722 810 1051 1954 2039 2301 2586 2590 2875 2887 3039 3030 3065 2740 2665 2225 1920 1723 1368 1096 1188 1342 955 657 265 101 34
0 0 0 0 0 0 0 0 4 0 0 0 17 9 0 108 25 109 168 524 695 687 805 981 1126 1713 2275 2503 2719 2973 3040 3032 3232 2991 2707 2578 2210 1782 1578 1216 985 994 682 332 160 136 4 0 0
CIN
-384 -221 -85 -4 -13 -4 -74 -32 -44 -2 -18 -2 -20 -23 -78 -68 -51 -32 -35 -5 -36 -49 -11 -6 0 0 0 -2 0 -1 -1 0 0 0 0 -1 0 0 0 0 0 0 0 0 0 0 0 0 0
-366 -127 -19 -12 -7 -2 -4 -16 -22 -14 -10 -1 -5 -13 -47 -38 -51 -53 -12 -4 -13 -21 -13 -13 -5 -1 0 -4 -1 0 0 -1 0 0 0 0 -1 0 -11 -14 -5 -3 -6 -1 -2 0 0 0 0
-429 -104 -26 -14 -4 -1 -4 -2 -2 -9 -13 -4 -11 -11 -19 -45 -18 -12 -12 -14 -30 -23 -4 -10 -3 -2 -3 0 -1 0 0 0 0 0 0 -11 0 -10 0 0 0 0 0 0 0 0 -4 -9 -20
-165 -23 -48 -8 -2 -3 -2 -3 -2 -5 -8 -6 -19 -12 -2 -6 -14 -34 -2 -12 -25 -29 0 -5 -1 0 0 -1 0 0 0 -13 -12 -13 -2 0 -3 -2 0 0 0 0 0 -2 -9 -10 -11 -21 -26
-88 -10 -5 -3 -3 -2 -6 -6 -2 -10 -8 -6 -52 -13 -1 -7 -59 -46 -7 -3 -18 -15 -1 0 0 0 0 0 -1 -1 0 -7 0 0 0 -1 0 0 0 0 -1 -1 -8 -13 -20 -23 -36 -51 -60
-34 -6 -35 -4 -2 -2 -2 -8 -8 -13 -12 -24 -37 -18 -1 -2 -37 -27 -24 -15 -8 -13 -5 -1 -2 -1 -1 0 0 0 -8 -12 0 0 -8 -1 0 0 -1 -9 -18 -18 -21 -30 -44 -43 -59 -78 -91
-83 -127 -20 -4 0 -10 -9 -6 -3 -6 -2 -1 -23 -41 -4 0 0 0 -28 -20 -15 -8 -5 -1 0 0 0 0 0 -1 -5 -16 -9 -6 -26 -10 -10 -12 -15 -21 -23 -29 -47 -64 -77 -72 -78 -96 -100
-32 -40 -4 -3 0 -62 -35 -11 -8 -6 -2 -2 -37 -49 -11 0 0 0 -9 -8 -5 -1 -12 -8 -8 -6 -10 -3 -6 0 0 0 -7 -49 -44 -34 -57 -59 -51 -61 -59 -74 -82 -92 -77 -86 -104 -119 -114
-9 -41 0 -2 -1 -102 -85 -24 -16 -11 -1 -5 -11 -74 -18 -1 -2 -1 0 -12 -17 -22 -11 -12 -20 -10 -6 -25 -26 -38 -31 -32 -50 -49 -45 -48 -30 -51 -40 -63 -69 -57 -113 -99 -90 -85 -95 -91 -86
-33 -4 0 0 -82 -76 -65 -98 -17 -33 -26 -3 -18 -24 -17 0 0 0 0 -6 0 -14 -35 -11 -6 -16 -21 -35 -33 -29 -23 -27 -48 -6 -15 -28 -20 -21 -5 -27 -58 -55 -46 -48 -52 -48 -45 -69 -53
-64 0 0 -134 -168 -213 -154 -100 -26 -17 -16 -39 -39 -35 -2 -69 -1 0 -3 0 0 0 -71 -57 -29 -5 -10 -10 -9 -14 -17 -5 -13 -7 -6 -7 -17 -15 -13 -32 -38 -31 -35 -31 -15 -22 -6 -97 -4
-29 0 0 -259 -226 -223 -139 -148 -22 -4 -2 -58 -52 -11 -23 -17 -51 -1 0 0 0 0 0 0 -52 -11 -51 -4 -38 -85 -26 -101 -72 -21 -20 -16 -17 -21 -10 -58 -25 -10 -10 -14 -50 -95 -119 -30 -3
-93 0 0 -173 -290 -219 -212 -163 -74 -38 -24 -58 -53 -38 -26 -80 -114 -15 0 0 0 0 0 0 -8 -14 -17 -24 -123 -119 -72 -15 -8 -8 -6 -2 -18 -62 -34 -34 -18 -9 -20 -12 -8 -5 -6 -18 -14
-38 0 0 0 -243 -274 -202 -166 -99 -88 -50 -56 -71 -44 -29 -65 -54 -67 -2 0 -1 -2 -1 -27 -16 -73 -57 -29 -20 -20 -7 -8 -4 -5 -12 0 -3 -7 -18 -22 -11 -13 -24 -16 -14 -14 -19 -11 -10
-19 -11 -64 -117 -152 -182 -172 -217 -133 -105 -82 -61 -46 -52 -63 -51 -56 -87 -110 -160 -17 0 -4 -80 -34 -71 -52 -13 -21 -25 -6 -2 -3 -2 -9 -11 -6 -1 -21 -3 -6 -5 -1 -14 -17 -12 -7 -10 -5
-168 -153 -104 -31 -24 -140 -144 -132 -104 -101 -97 -48 -51 -58 -66 -53 -107 -115 -144 -249 -101 -115 -77 -16 -91 -12 -51 -52 -58 -26 -16 -32 -12 -11 -20 -21 -15 0 -11 -3 -65 -16 -17 -35 -17 -6 -2 -6 -21
-13 0 -126 -19 -2 -26 -48 -141 -130 -139 -118 -67 -59 -86 -103 -102 -88 -87 -160 -217 -157 -136 -101 -31 -67 -111 -41 -82 -25 -28 -36 -43 -30 -18 -36 -10 -17 -2 -15 -14 -10 -10 -14 -12 -11 -2 -4 -14 -19
0 0 -39 -47 -31 -12 -97 -134 -164 -143 -120 -102 -79 -102 -108 -132 -133 -95 -97 -122 -165 -234 -114 -98 -74 -58 -59 -73 -72 -63 -49 -44 -44 -39 -31 -44 -19 -6 -1 -13 -6 -8 -11 -17 -35 -9 -15 -31 -36
0 0 -115 -26 -4 -11 -93 -110 -125 -190 -189 -190 -142 -125 -118 -105 -65 -90 -120 -113 -117 -141 -112 -65 -72 -92 -45 -89 -75 -61 -75 -73 -55 -41 -49 -57 -33 0 0 -3 -10 -2 -6 -9 -11 -13 -24 -19 -13
0 -53 -18 -10 0 -20 -4 -33 -77 -150 -183 -121 -194 -159 -134 -111 -121 -99 -76 -84 -103 -123 -95 -104 -67 -40 -70 -61 -40 -49 -38 -42 -17 -43 -37 -30 -25 -5 -1 -9 -7 -9 -11 -13 -43 -48 -43 -36 -12
-4 -16 -13 0 0 0 -5 -6 -29 -79 -126 0 0 0 -105 -191 -101 -114 -116 -101 -108 -122 -124 -178 -156 -98 -82 -78 -53 -29 -77 -86 -79 -85 -74 -71 -43 -10 -3 -3 -3 -6 -7 -18 -32 -36 -39 -40 -33
-6 -14 -13 0 0 0 0 -17 -16 -52 -38 -30 0 0 0 0 -146 -118 -132 -139 -137 -125 -133 -175 -192 -190 -122 -122 -135 -79 -101 -80 -75 -42 -39 -8 -4 -5 -7 -4 -3 -4 -11 -10 -8 -3 -11 -11 -22
0 0 0 0 0 0 0 -19 -1 -29 -70 0 0 0 0 0 -193 -164 -148 -153 -163 -173 -156 -150 -106 -123 -131 -124 -140 -155 -56 -96 -83 -91 -84 -32 -8 -15 -15 -22 -4 -5 -15 -6 -14 -16 -17 -23 -15
0 0 0 0 0 0 0 -8 -22 0 0 0 0 0 0 0 0 -158 -176 -193 -195 -188 -193 -180 -147 -135 -109 -73 -97 -136 -97 -89 -113 -94 -47 -34 -5 -7 -20 -33 -104 -6 -4 -7 -7 -11 -11 -9 -9
0 -7 0 0 0 0 -8 -22 -3 0 0 0 0 0 0 0 0 -150 -157 -183 -205 -213 -204 -224 -214 -200 -147 -153 -108 -122 -150 -96 -70 -87 -66 -15 -16 -13 -35 -58 -168 -66 -4 -14 -6 -7 -6 -10 -12
0 -7 -4 0 0 0 -6 -3 -12 0 0 0 0 0 0 0 0 -134 -130 -157 -191 -199 -221 -220 -250 -242 -224 -192 -172 -127 -119 -137 -114 -117 -90 -61 -15 -8 -9 -14 -20 -12 -11 -12 -9 -21 -13 -18 -22
0 0 0 0 0 -19 -11 -9 -24 0 0 0 0 0 0 0 0 -120 -109 -141 -187 -207 -227 -232 -246 -248 -240 -225 -189 -165 -134 -128 -103 -89 -46 -25 -12 -21 -5 -18 -28 -21 -19 -21 -20 -20 -26 -24 -15
0 0 0 0 0 -11 -39 -5 -39 0 0 0 0 -2 -7 0 0 -25 -100 -121 -149 -172 -196 -220 -229 -265 -227 -209 -174 -146 -113 -73 -75 -51 -21 -10 -7 -5 -5 -22 -22 -37 -20 -18 -26 -35 -5 -4 -2
0 0 0 0 0 0 -5 -37 0 0 0 0 0 0 -6 -31 -49 -64 -64 -99 -144 -148 -167 -194 -199 -219 -214 -177 -125 -97 -37 -17 -10 -4 -3 -2 -1 -21 -15 -16 -46 -46 -19 -8 -10 -26 -117 -257 -308
0 0 0 0 0 0 0 -2 -58 0 0 0 -14 -15 0 -19 -28 -30 -46 -60 -130 -121 -146 -186 -191 -192 -190 -153 -111 -60 -32 -17 -3 -3 -7 -13 -15 -11 -13 -36 -44 -20 -67 -149 -264 -269 -16 0 0
Wind_Speed
21 21 19 17 14 12 6 14 8 14 15 19 19 16 15 9 8 15 7 15 15 16 18 23 14 12 16 7 8 7 3 2 5 9 11 11 17 18 18 21 23 24 26 26 27 28 28 28 27
19 17 15 13 10 14 15 19 16 12 17 18 19 18 15 13 9 13 4 24 21 20 20 23 14 15 11 9 12 7 3 5 6 10 13 15 18 20 20 21 22 23 24 25 26 26 26 26 26
16 14 13 14 6 16 14 17 18 16 13 15 14 15 13 18 7 23 12 10 20 25 27 24 17 12 13 12 7 5 4 6 8 9 12 17 18 19 20 21 23 23 24 24 24 24 24 24 23
14 14 13 9 14 16 16 16 18 20 18 16 16 16 12 19 11 23 18 29 4 31 30 25 12 6 6 7 5 4 5 7 8 12 11 15 18 19 18 19 21 22 22 22 22 22 22 22 21
14 10 14 16 15 15 14 14 16 14 15 18 16 15 10 12 22 21 13 16 27 27 19 25 5 3 3 4 4 5 6 6 7 13 10 15 16 16 18 19 19 19 20 20 20 20 20 20 19
10 14 14 15 16 12 15 18 19 17 17 18 18 13 10 21 20 20 20 21 21 20 23 21 2 4 3 4 6 7 7 7 7 12 11 13 15 17 18 18 18 19 19 18 18 18 18 18 17
8 9 10 14 18 14 22 21 19 19 16 15 17 12 12 18 20 19 10 14 14 14 14 21 17 6 4 7 6 7 7 8 7 7 11 13 15 18 18 17 17 17 17 16 15 15 15 15 15
14 9 9 16 19 22 10 21 20 19 18 16 19 12 15 19 18 20 13 7 6 12 12 20 21 26 23 20 14 10 7 7 7 10 16 16 19 18 17 16 16 16 15 15 16 13 13 13 12
12 13 9 11 19 23 24 22 21 19 20 15 13 18 20 19 17 13 14 13 8 9 5 10 24 26 21 21 23 23 23 17 9 14 9 18 18 17 16 16 15 15 15 15 14 12 13 9 8
15 14 9 9 13 21 23 24 25 25 23 20 21 21 21 19 18 17 13 9 8 9 4 22 23 25 22 22 24 22 22 20 18 12 14 19 15 14 12 16 15 15 16 15 13 15 23 17 7
6 10 9 10 16 17 23 24 20 21 20 21 23 25 24 22 17 18 14 11 12 17 18 23 23 24 16 10 22 21 13 10 13 12 16 14 13 17 17 22 13 10 14 12 10 19 24 22 12
17 15 17 19 20 19 22 20 20 24 22 23 25 27 26 24 21 17 15 22 21 23 23 27 24 20 11 10 12 15 17 16 18 11 14 17 17 19 20 14 11 10 16 14 14 18 11 11 20
13 16 18 18 18 20 18 21 23 23 24 25 26 25 25 25 24 23 23 24 25 26 25 27 24 14 10 9 12 21 19 19 20 19 18 18 18 16 19 13 12 12 13 8 12 11 8 8 7
6 17 18 20 21 21 22 23 23 24 26 26 25 27 26 27 27 27 26 27 28 26 27 27 22 22 22 22 21 20 18 20 16 18 19 13 10 11 7 9 8 13 13 19 12 9 9 6 6
24 11 11 16 18 19 24 22 22 24 24 25 26 27 27 27 27 27 26 28 29 30 30 28 23 25 24 22 22 19 20 16 16 15 15 14 10 7 6 14 13 13 16 19 10 7 6 7 5
10 10 12 9 18 15 19 17 20 23 24 25 26 26 27 27 28 27 28 28 30 31 31 29 26 26 25 24 22 19 16 16 15 13 12 14 13 6 12 20 24 7 6 18 7 17 8 11 22
9 22 24 18 17 16 13 17 20 23 23 26 27 27 26 26 27 27 28 29 30 30 30 28 26 25 25 23 21 19 18 16 13 12 11 18 16 17 3 8 15 12 12 15 8 10 13 21 15
19 27 25 22 20 19 15 20 21 24 24 24 25 26 26 26 26 28 28 28 29 29 29 27 25 24 22 20 19 19 17 14 12 10 9 19 21 19 11 16 10 24 21 14 8 16 18 16 12
23 24 23 17 21 14 18 22 23 23 23 23 23 25 26 26 26 27 27 28 28 29 28 27 26 24 22 20 21 19 16 14 10 9 7 10 11 12 21 10 26 21 20 19 15 14 10 10 13
20 22 18 11 20 17 24 23 21 23 22 20 23 23 25 26 26 26 27 28 27 29 28 27 26 24 23 23 21 20 16 13 10 9 9 7 7 8 7 19 18 24 22 16 16 14 13 15 10
25 24 11 17 20 20 22 26 22 21 20 19 23 24 25 26 26 25 25 27 28 28 28 28 26 24 23 22 20 18 16 13 10 7 6 6 8 10 10 7 8 16 14 10 11 12 11 13 15
29 9 19 16 22 21 23 24 26 22 23 22 24 24 25 27 27 26 28 30 29 28 27 26 24 23 21 21 19 16 14 11 10 8 7 9 12 10 10 8 7 11 12 9 10 10 12 12 11
30 7 24 23 22 22 26 22 23 22 23 24 24 24 26 27 27 28 30 30 29 28 26 25 22 21 21 19 18 16 13 11 10 8 6 6 6 6 5 7 14 9 10 9 11 12 14 14 16
30 24 17 22 25 25 25 19 23 23 22 24 24 24 26 27 27 27 28 27 27 26 25 23 21 20 19 18 17 16 14 11 9 7 5 5 5 7 6 5 27 4 7 10 11 15 17 19 19
38 35 25 28 29 27 26 14 15 21 18 22 24 23 24 25 27 26 25 25 25 25 23 21 20 19 19 18 16 14 14 11 8 6 4 4 6 7 18 16 16 1 7 13 14 18 20 23 24
42 39 35 29 29 28 21 13 11 8 9 16 21 23 22 23 24 27 25 24 23 23 22 21 19 17 16 15 14 13 11 10 7 4 2 4 8 11 16 17 13 11 17 18 21 23 24 26 27
43 44 36 36 31 27 8 13 7 6 8 5 16 20 23 22 22 25 26 23 21 20 20 18 16 15 13 13 12 11 10 9 7 4 3 5 6 10 18 22 22 24 27 26 27 27 28 27 27
47 38 43 41 37 34 29 12 10 6 1 4 7 15 19 21 21 23 23 21 19 17 16 16 13 13 12 11 11 10 8 7 4 2 5 6 10 14 20 25 27 28 27 28 27 29 27 28 29
42 48 38 42 38 36 23 28 7 7 4 4 11 4 13 18 20 21 20 19 16 15 14 14 13 11 11 10 9 8 7 5 4 5 4 7 14 20 21 24 26 27 25 25 26 27 27 31 33
44 48 45 41 43 38 32 29 6 6 4 3 9 17 8 17 16 19 17 17 16 14 13 13 11 10 10 8 6 5 5 6 5 8 14 16 17 19 22 22 23 23 24 29 30 32 32 33 34
Wind_Direction
135 142 154 158 269 98 208 25 238 16 8 21 30 33 42 8 345 76 199 198 195 192 187 172 185 186 182 196 195 199 225 304 354 17 22 21 39 40 40 51 55 60 69 71 76 77 78 81 92
161 161 170 214 257 249 13 38 355 353 37 39 28 36 28 26 17 76 122 182 185 184 181 177 191 186 194 198 194 213 257 351 350 18 28 32 44 48 48 54 60 62 64 71 78 81 81 80 88
180 196 216 200 278 338 345 360 22 33 17 26 23 11 360 66 199 172 92 88 185 167 154 173 189 198 196 200 216 236 343 357 4 10 21 41 45 45 55 56 63 65 71 73 74 82 88 88 90
162 173 188 302 324 342 358 2 38 42 28 33 41 24 28 74 59 96 91 114 112 142 140 170 201 222 227 225 243 290 342 348 360 28 17 35 47 50 45 49 58 65 70 71 73 81 87 87 94
178 228 258 357 344 337 336 351 334 37 25 43 35 46 28 51 88 90 88 90 114 121 84 100 227 268 309 284 300 316 329 334 335 32 12 33 36 37 48 53 53 54 64 67 67 74 84 89 92
228 213 222 348 6 327 8 53 44 25 50 53 53 49 24 88 92 91 96 92 91 88 97 90 350 4 323 301 336 348 347 343 334 30 20 30 37 41 50 53 58 62 73 72 70 79 86 91 95
252 222 256 19 24 8 67 76 52 54 45 45 72 32 65 88 97 98 79 78 79 68 71 92 78 25 355 9 285 337 350 358 335 354 35 36 46 56 59 51 57 62 70 95 69 87 99 100 99
150 166 306 8 33 63 10 50 66 59 63 64 79 57 89 102 97 100 85 73 55 61 58 87 92 120 108 85 57 25 280 333 339 45 77 74 81 75 67 63 59 59 41 24 353 227 161 149 125
230 185 302 314 43 95 119 50 55 48 58 36 25 87 99 102 100 92 95 88 65 46 19 58 114 135 89 93 117 121 135 74 259 154 358 97 92 80 77 64 58 66 58 32 46 86 163 104 132
222 20 325 348 90 142 93 97 99 85 77 58 73 87 102 104 106 106 99 93 79 72 268 113 135 127 110 107 138 138 133 165 202 316 281 198 124 35 11 23 56 67 44 29 32 0 287 223 136
6 12 14 14 39 46 76 103 121 87 78 92 101 104 110 109 105 112 106 102 104 105 107 129 133 165 201 50 162 159 222 39 269 293 340 3 327 357 8 348 200 85 34 46 27 329 283 245 309
24 26 51 62 67 51 68 53 27 60 85 94 107 111 114 116 113 106 105 127 130 139 131 153 160 146 258 303 282 242 213 26 180 244 311 353 336 323 356 59 93 100 39 63 42 45 131 176 359
23 36 51 56 53 63 46 45 53 58 74 91 104 112 117 118 119 123 130 137 143 149 143 160 134 148 46 318 32 179 171 90 118 117 63 354 348 287 290 234 209 223 68 111 82 76 116 198 94
298 46 53 62 71 63 66 66 63 72 85 95 105 121 124 132 136 137 130 140 152 154 148 149 130 140 140 158 140 156 169 150 164 101 50 132 129 103 178 194 170 72 74 28 85 155 132 149 119
149 46 35 66 78 82 86 50 61 85 93 100 113 127 134 143 131 145 138 147 155 156 152 151 141 156 158 165 167 169 156 180 167 140 121 119 132 139 142 259 241 53 45 28 98 153 153 104 130
345 293 261 58 66 83 157 39 76 94 99 111 119 127 140 147 153 151 152 155 156 157 162 157 151 150 158 162 171 175 185 193 190 171 147 77 64 167 243 307 9 186 118 28 170 352 85 78 6
348 228 186 187 100 80 81 68 95 109 107 124 133 137 141 150 146 157 146 150 159 162 162 164 155 147 150 158 163 168 176 157 161 141 113 34 35 27 110 67 49 61 55 49 114 70 23 340 40
109 139 159 178 125 175 72 79 104 127 119 128 132 136 139 138 142 145 151 156 154 161 163 154 152 160 145 139 141 171 167 151 150 134 87 19 2 5 36 266 316 14 33 50 64 28 17 24 49
191 183 170 156 136 228 211 106 113 126 132 120 122 133 145 141 140 141 146 152 155 165 154 154 159 157 154 150 164 161 158 153 142 125 121 72 60 38 344 11 341 18 24 25 35 35 58 57 29
166 196 132 62 180 212 157 123 115 129 135 117 126 127 137 139 136 139 142 145 148 160 155 155 159 160 160 166 170 178 172 162 141 117 105 106 121 137 129 19 19 359 7 24 32 33 24 13 16
199 196 252 220 196 197 179 144 123 129 129 115 131 130 135 135 133 132 138 143 148 153 153 158 158 158 163 164 166 172 173 178 170 157 149 142 120 107 90 102 84 36 39 54 41 32 20 6 358
210 281 235 232 208 206 177 184 165 133 147 134 135 134 140 140 139 137 148 155 159 156 152 156 157 161 160 162 167 160 157 150 148 141 142 101 89 72 68 78 76 48 39 37 32 23 8 359 345
215 287 225 228 225 212 180 198 167 139 149 146 142 139 144 146 144 145 154 155 154 156 154 153 149 153 157 155 162 165 162 158 166 161 161 121 102 91 108 90 39 33 27 27 13 6 358 350 341
221 231 239 233 223 216 210 216 172 148 147 149 146 141 144 147 148 144 149 145 152 149 149 143 144 149 151 155 154 164 160 152 153 150 111 111 77 51 348 89 2 270 20 11 3 357 354 350 344
214 210 228 219 209 211 209 150 253 153 138 146 146 143 143 141 150 147 146 145 148 149 146 141 140 145 148 153 154 153 166 162 145 147 116 76 41 26 17 26 12 295 6 6 2 357 354 350 345
212 216 220 221 206 206 243 252 298 110 103 133 140 146 142 145 147 155 149 149 150 152 148 145 142 143 144 146 150 149 148 154 154 149 94 27 18 16 14 12 12 15 2 1 359 356 352 348 345
214 216 225 221 226 241 300 276 67 106 96 74 139 142 147 146 148 153 155 153 151 153 154 152 146 146 146 150 148 147 144 146 132 124 68 30 14 7 4 358 358 355 354 355 353 352 348 347 347
221 226 221 229 230 236 227 272 282 159 178 278 281 147 149 148 151 152 156 155 153 154 153 154 150 153 148 146 147 145 140 136 132 109 25 13 5 360 358 354 352 351 353 353 353 352 353 348 347
231 223 235 228 233 225 256 230 165 180 203 197 149 136 157 154 155 156 155 155 153 154 155 157 157 152 150 145 140 135 120 108 81 49 47 25 18 9 3 357 355 355 358 360 356 353 352 349 347
227 226 226 233 221 236 247 271 159 164 144 241 264 265 159 158 157 159 156 153 153 154 155 157 156 155 152 140 124 114 90 75 69 43 28 26 19 12 4 5 5 6 3 356 354 352 352 350 348